owner,sensor,date,latitude,longitude,air_temperature,qcFlag 
WAVCIS,ioos:station:WAVCIS:CSI06:1,2011-01-01T00:00:00Z,28.8667,-90.4833,19.61,11111222 
WAVCIS,ioos:station:WAVCIS:CSI06:1,2011-01-01T01:00:00Z,28.8667,-90.4833,19.55,11111222 
WAVCIS,ioos:station:WAVCIS:CSI06:1,2011-01-01T02:00:00Z,28.8667,-90.4833,19.65,11111222 
WAVCIS,ioos:station:WAVCIS:CSI06:1,2011-01-01T03:00:00Z,28.8667,-90.4833,19.49,11111222 
WAVCIS,ioos:station:WAVCIS:CSI06:1,2011-01-01T04:00:00Z,28.8667,-90.4833,19.47,11111222 
WAVCIS,ioos:station:WAVCIS:CSI06:1,2011-01-01T05:00:00Z,28.8667,-90.4833,19.4,11111222 
WAVCIS,ioos:station:WAVCIS:CSI06:1,2011-01-01T06:00:00Z,28.8667,-90.4833,19.32,11111222 
WAVCIS,ioos:station:WAVCIS:CSI06:1,2011-01-01T07:00:00Z,28.8667,-90.4833,19.13,11111222 
WAVCIS,ioos:station:WAVCIS:CSI06:1,2011-01-01T08:00:00Z,28.8667,-90.4833,19.06,11111222 
WAVCIS,ioos:station:WAVCIS:CSI06:1,2011-01-01T09:00:00Z,28.8667,-90.4833,19.02,11111222 
WAVCIS,ioos:station:WAVCIS:CSI06:1,2011-01-01T10:00:00Z,28.8667,-90.4833,18.97,11111222 
WAVCIS,ioos:station:WAVCIS:CSI06:1,2011-01-01T11:00:00Z,28.8667,-90.4833,19.39,11111222 
WAVCIS,ioos:station:WAVCIS:CSI06:1,2011-01-01T12:00:00Z,28.8667,-90.4833,19.25,11111222 
WAVCIS,ioos:station:WAVCIS:CSI06:1,2011-01-01T13:00:00Z,28.8667,-90.4833,19.15,11111222 
WAVCIS,ioos:station:WAVCIS:CSI06:1,2011-01-01T14:00:00Z,28.8667,-90.4833,19.49,11111222 
WAVCIS,ioos:station:WAVCIS:CSI06:1,2011-01-01T15:00:00Z,28.8667,-90.4833,19.36,11111222 
WAVCIS,ioos:station:WAVCIS:CSI06:1,2011-01-01T16:00:00Z,28.8667,-90.4833,19.28,11111222 
WAVCIS,ioos:station:WAVCIS:CSI06:1,2011-01-01T17:00:00Z,28.8667,-90.4833,19.39,11111222 
WAVCIS,ioos:station:WAVCIS:CSI06:1,2011-01-01T18:00:00Z,28.8667,-90.4833,19.11,11111222 
WAVCIS,ioos:station:WAVCIS:CSI06:1,2011-01-01T19:00:00Z,28.8667,-90.4833,19.61,11111222 
WAVCIS,ioos:station:WAVCIS:CSI06:1,2011-01-01T20:00:00Z,28.8667,-90.4833,16.36,11111222 
WAVCIS,ioos:station:WAVCIS:CSI06:1,2011-01-01T21:00:00Z,28.8667,-90.4833,14.88,11111222 
WAVCIS,ioos:station:WAVCIS:CSI06:1,2011-01-01T22:00:00Z,28.8667,-90.4833,14.89,11111222 
WAVCIS,ioos:station:WAVCIS:CSI06:1,2011-01-01T23:00:00Z,28.8667,-90.4833,14.38,11111222 
WAVCIS,ioos:station:WAVCIS:CSI06:1,2011-01-02T00:00:00Z,28.8667,-90.4833,13.72,11111222 
WAVCIS,ioos:station:WAVCIS:CSI06:1,2011-01-02T01:00:00Z,28.8667,-90.4833,13.45,11111222 
WAVCIS,ioos:station:WAVCIS:CSI06:1,2011-01-02T02:00:00Z,28.8667,-90.4833,12.86,11111222 
WAVCIS,ioos:station:WAVCIS:CSI06:1,2011-01-02T03:00:00Z,28.8667,-90.4833,12.6,11111222 
WAVCIS,ioos:station:WAVCIS:CSI06:1,2011-01-02T04:00:00Z,28.8667,-90.4833,12.52,11111222 
WAVCIS,ioos:station:WAVCIS:CSI06:1,2011-01-02T05:00:00Z,28.8667,-90.4833,12.92,11111222 
WAVCIS,ioos:station:WAVCIS:CSI06:1,2011-01-02T06:00:00Z,28.8667,-90.4833,12.05,11111222 
WAVCIS,ioos:station:WAVCIS:CSI06:1,2011-01-02T07:00:00Z,28.8667,-90.4833,11.77,11111222 
WAVCIS,ioos:station:WAVCIS:CSI06:1,2011-01-02T08:00:00Z,28.8667,-90.4833,11.03,11111222 
WAVCIS,ioos:station:WAVCIS:CSI06:1,2011-01-02T09:00:00Z,28.8667,-90.4833,10.89,11111222 
WAVCIS,ioos:station:WAVCIS:CSI06:1,2011-01-02T10:00:00Z,28.8667,-90.4833,9.9,11111222 
WAVCIS,ioos:station:WAVCIS:CSI06:1,2011-01-02T11:00:00Z,28.8667,-90.4833,9.1,11111222 
WAVCIS,ioos:station:WAVCIS:CSI06:1,2011-01-02T12:00:00Z,28.8667,-90.4833,8.11,11111222 
WAVCIS,ioos:station:WAVCIS:CSI06:1,2011-01-02T13:00:00Z,28.8667,-90.4833,7.91,11111222 
WAVCIS,ioos:station:WAVCIS:CSI06:1,2011-01-02T14:00:00Z,28.8667,-90.4833,7.57,11111222 
WAVCIS,ioos:station:WAVCIS:CSI06:1,2011-01-02T15:00:00Z,28.8667,-90.4833,7.64,11111222 
WAVCIS,ioos:station:WAVCIS:CSI06:1,2011-01-02T16:00:00Z,28.8667,-90.4833,8.04,11111222 
WAVCIS,ioos:station:WAVCIS:CSI06:1,2011-01-02T17:00:00Z,28.8667,-90.4833,8.37,11111222 
WAVCIS,ioos:station:WAVCIS:CSI06:1,2011-01-02T18:00:00Z,28.8667,-90.4833,8.69,11111222 
WAVCIS,ioos:station:WAVCIS:CSI06:1,2011-01-02T19:00:00Z,28.8667,-90.4833,9.53,11111222 
WAVCIS,ioos:station:WAVCIS:CSI06:1,2011-01-02T20:00:00Z,28.8667,-90.4833,9.77,11111222 
WAVCIS,ioos:station:WAVCIS:CSI06:1,2011-01-02T21:00:00Z,28.8667,-90.4833,10.36,11111222 
WAVCIS,ioos:station:WAVCIS:CSI06:1,2011-01-02T22:00:00Z,28.8667,-90.4833,10.76,11111222 
WAVCIS,ioos:station:WAVCIS:CSI06:1,2011-01-02T23:00:00Z,28.8667,-90.4833,10.52,11111222 
WAVCIS,ioos:station:WAVCIS:CSI06:1,2011-01-03T00:00:00Z,28.8667,-90.4833,10.04,11111222 
WAVCIS,ioos:station:WAVCIS:CSI06:1,2011-01-03T01:00:00Z,28.8667,-90.4833,9.71,11111222 
WAVCIS,ioos:station:WAVCIS:CSI06:1,2011-01-03T02:00:00Z,28.8667,-90.4833,9.76,11111222 
WAVCIS,ioos:station:WAVCIS:CSI06:1,2011-01-03T03:00:00Z,28.8667,-90.4833,9.56,11111222 
WAVCIS,ioos:station:WAVCIS:CSI06:1,2011-01-03T04:00:00Z,28.8667,-90.4833,9.54,11111222 
WAVCIS,ioos:station:WAVCIS:CSI06:1,2011-01-03T05:00:00Z,28.8667,-90.4833,9.01,11111222 
WAVCIS,ioos:station:WAVCIS:CSI06:1,2011-01-03T06:00:00Z,28.8667,-90.4833,8.67,11111222 
WAVCIS,ioos:station:WAVCIS:CSI06:1,2011-01-03T07:00:00Z,28.8667,-90.4833,8.4,11111222 
WAVCIS,ioos:station:WAVCIS:CSI06:1,2011-01-03T08:00:00Z,28.8667,-90.4833,8.23,11111222 
WAVCIS,ioos:station:WAVCIS:CSI06:1,2011-01-03T09:00:00Z,28.8667,-90.4833,8.4,11111222 
WAVCIS,ioos:station:WAVCIS:CSI06:1,2011-01-03T10:00:00Z,28.8667,-90.4833,8.07,11111222 
WAVCIS,ioos:station:WAVCIS:CSI06:1,2011-01-03T11:00:00Z,28.8667,-90.4833,8.43,11111222 
WAVCIS,ioos:station:WAVCIS:CSI06:1,2011-01-03T12:00:00Z,28.8667,-90.4833,9.28,11111222 
WAVCIS,ioos:station:WAVCIS:CSI06:1,2011-01-03T13:00:00Z,28.8667,-90.4833,9.3,11111222 
WAVCIS,ioos:station:WAVCIS:CSI06:1,2011-01-03T14:00:00Z,28.8667,-90.4833,9.59,11111222 
WAVCIS,ioos:station:WAVCIS:CSI06:1,2011-01-03T15:00:00Z,28.8667,-90.4833,9.95,11111222 
WAVCIS,ioos:station:WAVCIS:CSI06:1,2011-01-03T16:00:00Z,28.8667,-90.4833,10.31,11111222 
WAVCIS,ioos:station:WAVCIS:CSI06:1,2011-01-03T17:00:00Z,28.8667,-90.4833,10.71,11111222 
WAVCIS,ioos:station:WAVCIS:CSI06:1,2011-01-03T18:00:00Z,28.8667,-90.4833,10.79,11111222 
WAVCIS,ioos:station:WAVCIS:CSI06:1,2011-01-03T19:00:00Z,28.8667,-90.4833,11.17,11111222 
WAVCIS,ioos:station:WAVCIS:CSI06:1,2011-01-03T20:00:00Z,28.8667,-90.4833,11.61,11111222 
WAVCIS,ioos:station:WAVCIS:CSI06:1,2011-01-03T21:00:00Z,28.8667,-90.4833,12.0,11111222 
WAVCIS,ioos:station:WAVCIS:CSI06:1,2011-01-03T22:00:00Z,28.8667,-90.4833,12.27,11111222 
WAVCIS,ioos:station:WAVCIS:CSI06:1,2011-01-03T23:00:00Z,28.8667,-90.4833,11.99,11111222 
WAVCIS,ioos:station:WAVCIS:CSI06:1,2011-01-04T00:00:00Z,28.8667,-90.4833,12.03,11111222 
WAVCIS,ioos:station:WAVCIS:CSI06:1,2011-01-04T01:00:00Z,28.8667,-90.4833,12.33,11111222 
WAVCIS,ioos:station:WAVCIS:CSI06:1,2011-01-04T02:00:00Z,28.8667,-90.4833,12.48,11111222 
WAVCIS,ioos:station:WAVCIS:CSI06:1,2011-01-04T03:00:00Z,28.8667,-90.4833,12.74,11111222 
WAVCIS,ioos:station:WAVCIS:CSI06:1,2011-01-04T04:00:00Z,28.8667,-90.4833,13.07,11111222 
WAVCIS,ioos:station:WAVCIS:CSI06:1,2011-01-04T05:00:00Z,28.8667,-90.4833,13.71,11111222 
WAVCIS,ioos:station:WAVCIS:CSI06:1,2011-01-04T06:00:00Z,28.8667,-90.4833,14.22,11111222 
WAVCIS,ioos:station:WAVCIS:CSI06:1,2011-01-04T07:00:00Z,28.8667,-90.4833,14.51,11111222 
WAVCIS,ioos:station:WAVCIS:CSI06:1,2011-01-04T08:00:00Z,28.8667,-90.4833,14.75,11111222 
WAVCIS,ioos:station:WAVCIS:CSI06:1,2011-01-04T09:00:00Z,28.8667,-90.4833,15.31,11111222 
WAVCIS,ioos:station:WAVCIS:CSI06:1,2011-01-04T10:00:00Z,28.8667,-90.4833,15.45,11111222 
WAVCIS,ioos:station:WAVCIS:CSI06:1,2011-01-04T11:00:00Z,28.8667,-90.4833,16.13,11111222 
WAVCIS,ioos:station:WAVCIS:CSI06:1,2011-01-04T12:00:00Z,28.8667,-90.4833,13.19,11111222 
WAVCIS,ioos:station:WAVCIS:CSI06:1,2011-01-04T13:00:00Z,28.8667,-90.4833,13.76,11111222 
WAVCIS,ioos:station:WAVCIS:CSI06:1,2011-01-04T14:00:00Z,28.8667,-90.4833,13.47,11111222 
WAVCIS,ioos:station:WAVCIS:CSI06:1,2011-01-04T15:00:00Z,28.8667,-90.4833,14.2,11111222 
WAVCIS,ioos:station:WAVCIS:CSI06:1,2011-01-04T16:00:00Z,28.8667,-90.4833,14.05,11111222 
WAVCIS,ioos:station:WAVCIS:CSI06:1,2011-01-04T17:00:00Z,28.8667,-90.4833,13.88,11111222 
WAVCIS,ioos:station:WAVCIS:CSI06:1,2011-01-04T18:00:00Z,28.8667,-90.4833,14.09,11111222 
WAVCIS,ioos:station:WAVCIS:CSI06:1,2011-01-04T19:00:00Z,28.8667,-90.4833,14.64,11111222 
WAVCIS,ioos:station:WAVCIS:CSI06:1,2011-01-04T20:00:00Z,28.8667,-90.4833,14.57,11111222 
WAVCIS,ioos:station:WAVCIS:CSI06:1,2011-01-04T21:00:00Z,28.8667,-90.4833,14.68,11111222 
WAVCIS,ioos:station:WAVCIS:CSI06:1,2011-01-04T22:00:00Z,28.8667,-90.4833,14.76,11111222 
WAVCIS,ioos:station:WAVCIS:CSI06:1,2011-01-04T23:00:00Z,28.8667,-90.4833,14.74,11111222 
WAVCIS,ioos:station:WAVCIS:CSI06:1,2011-01-05T00:00:00Z,28.8667,-90.4833,14.74,11111222 
WAVCIS,ioos:station:WAVCIS:CSI06:1,2011-01-05T01:00:00Z,28.8667,-90.4833,15.2,11111222 
WAVCIS,ioos:station:WAVCIS:CSI06:1,2011-01-05T02:00:00Z,28.8667,-90.4833,15.78,11111222 
WAVCIS,ioos:station:WAVCIS:CSI06:1,2011-01-05T03:00:00Z,28.8667,-90.4833,16.11,11111222 
WAVCIS,ioos:station:WAVCIS:CSI06:1,2011-01-05T04:00:00Z,28.8667,-90.4833,16.28,11111222 
WAVCIS,ioos:station:WAVCIS:CSI06:1,2011-01-05T05:00:00Z,28.8667,-90.4833,16.58,11111222 
WAVCIS,ioos:station:WAVCIS:CSI06:1,2011-01-05T06:00:00Z,28.8667,-90.4833,16.54,11111222 
WAVCIS,ioos:station:WAVCIS:CSI06:1,2011-01-05T07:00:00Z,28.8667,-90.4833,16.74,11111222 
WAVCIS,ioos:station:WAVCIS:CSI06:1,2011-01-05T08:00:00Z,28.8667,-90.4833,17.49,11111222 
WAVCIS,ioos:station:WAVCIS:CSI06:1,2011-01-05T09:00:00Z,28.8667,-90.4833,17.51,11111222 
WAVCIS,ioos:station:WAVCIS:CSI06:1,2011-01-05T10:00:00Z,28.8667,-90.4833,17.71,11111222 
WAVCIS,ioos:station:WAVCIS:CSI06:1,2011-01-05T11:00:00Z,28.8667,-90.4833,17.76,11111222 
WAVCIS,ioos:station:WAVCIS:CSI06:1,2011-01-05T12:00:00Z,28.8667,-90.4833,17.78,11111222 
WAVCIS,ioos:station:WAVCIS:CSI06:1,2011-01-05T13:00:00Z,28.8667,-90.4833,17.78,11111222 
WAVCIS,ioos:station:WAVCIS:CSI06:1,2011-01-05T14:00:00Z,28.8667,-90.4833,17.82,11111222 
WAVCIS,ioos:station:WAVCIS:CSI06:1,2011-01-05T15:00:00Z,28.8667,-90.4833,17.74,11111222 
WAVCIS,ioos:station:WAVCIS:CSI06:1,2011-01-05T16:00:00Z,28.8667,-90.4833,17.85,11111222 
WAVCIS,ioos:station:WAVCIS:CSI06:1,2011-01-05T17:00:00Z,28.8667,-90.4833,17.96,11111222 
WAVCIS,ioos:station:WAVCIS:CSI06:1,2011-01-05T18:00:00Z,28.8667,-90.4833,17.98,11111222 
WAVCIS,ioos:station:WAVCIS:CSI06:1,2011-01-05T19:00:00Z,28.8667,-90.4833,17.93,11111222 
WAVCIS,ioos:station:WAVCIS:CSI06:1,2011-01-05T20:00:00Z,28.8667,-90.4833,18.0,11111222 
WAVCIS,ioos:station:WAVCIS:CSI06:1,2011-01-05T21:00:00Z,28.8667,-90.4833,17.89,11111222 
WAVCIS,ioos:station:WAVCIS:CSI06:1,2011-01-05T22:00:00Z,28.8667,-90.4833,17.11,11111222 
WAVCIS,ioos:station:WAVCIS:CSI06:1,2011-01-05T23:00:00Z,28.8667,-90.4833,16.58,11111222 
WAVCIS,ioos:station:WAVCIS:CSI06:1,2011-01-06T00:00:00Z,28.8667,-90.4833,16.57,11111222 
WAVCIS,ioos:station:WAVCIS:CSI06:1,2011-01-06T01:00:00Z,28.8667,-90.4833,16.69,11111222 
WAVCIS,ioos:station:WAVCIS:CSI06:1,2011-01-06T02:00:00Z,28.8667,-90.4833,16.15,11111222 
WAVCIS,ioos:station:WAVCIS:CSI06:1,2011-01-06T03:00:00Z,28.8667,-90.4833,15.31,11111222 
WAVCIS,ioos:station:WAVCIS:CSI06:1,2011-01-06T04:00:00Z,28.8667,-90.4833,14.77,11111222 
WAVCIS,ioos:station:WAVCIS:CSI06:1,2011-01-06T05:00:00Z,28.8667,-90.4833,14.07,11111222 
WAVCIS,ioos:station:WAVCIS:CSI06:1,2011-01-06T06:00:00Z,28.8667,-90.4833,13.91,11111222 
WAVCIS,ioos:station:WAVCIS:CSI06:1,2011-01-06T07:00:00Z,28.8667,-90.4833,13.39,11111222 
WAVCIS,ioos:station:WAVCIS:CSI06:1,2011-01-06T08:00:00Z,28.8667,-90.4833,14.26,11111222 
WAVCIS,ioos:station:WAVCIS:CSI06:1,2011-01-06T09:00:00Z,28.8667,-90.4833,14.53,11111222 
WAVCIS,ioos:station:WAVCIS:CSI06:1,2011-01-06T10:00:00Z,28.8667,-90.4833,13.03,11111222 
WAVCIS,ioos:station:WAVCIS:CSI06:1,2011-01-06T11:00:00Z,28.8667,-90.4833,12.31,11111222 
WAVCIS,ioos:station:WAVCIS:CSI06:1,2011-01-06T12:00:00Z,28.8667,-90.4833,12.14,11111222 
WAVCIS,ioos:station:WAVCIS:CSI06:1,2011-01-06T13:00:00Z,28.8667,-90.4833,11.99,11111222 
WAVCIS,ioos:station:WAVCIS:CSI06:1,2011-01-06T14:00:00Z,28.8667,-90.4833,11.71,11111222 
WAVCIS,ioos:station:WAVCIS:CSI06:1,2011-01-06T15:00:00Z,28.8667,-90.4833,11.78,11111222 
WAVCIS,ioos:station:WAVCIS:CSI06:1,2011-01-06T16:00:00Z,28.8667,-90.4833,11.14,11111222 
WAVCIS,ioos:station:WAVCIS:CSI06:1,2011-01-06T17:00:00Z,28.8667,-90.4833,11.16,11111222 
WAVCIS,ioos:station:WAVCIS:CSI06:1,2011-01-06T18:00:00Z,28.8667,-90.4833,11.46,11111222 
WAVCIS,ioos:station:WAVCIS:CSI06:1,2011-01-06T19:00:00Z,28.8667,-90.4833,12.06,11111222 
WAVCIS,ioos:station:WAVCIS:CSI06:1,2011-01-06T20:00:00Z,28.8667,-90.4833,12.43,11111222 
WAVCIS,ioos:station:WAVCIS:CSI06:1,2011-01-06T21:00:00Z,28.8667,-90.4833,12.64,11111222 
WAVCIS,ioos:station:WAVCIS:CSI06:1,2011-01-06T22:00:00Z,28.8667,-90.4833,12.68,11111222 
WAVCIS,ioos:station:WAVCIS:CSI06:1,2011-01-06T23:00:00Z,28.8667,-90.4833,12.68,11111222 
WAVCIS,ioos:station:WAVCIS:CSI06:1,2011-01-07T00:00:00Z,28.8667,-90.4833,12.99,11111222 
WAVCIS,ioos:station:WAVCIS:CSI06:1,2011-01-07T01:00:00Z,28.8667,-90.4833,13.35,11111222 
WAVCIS,ioos:station:WAVCIS:CSI06:1,2011-01-07T02:00:00Z,28.8667,-90.4833,13.43,11111222 
WAVCIS,ioos:station:WAVCIS:CSI06:1,2011-01-07T03:00:00Z,28.8667,-90.4833,13.52,11111222 
WAVCIS,ioos:station:WAVCIS:CSI06:1,2011-01-07T04:00:00Z,28.8667,-90.4833,13.64,11111222 
WAVCIS,ioos:station:WAVCIS:CSI06:1,2011-01-07T05:00:00Z,28.8667,-90.4833,13.22,11111222 
WAVCIS,ioos:station:WAVCIS:CSI06:1,2011-01-07T06:00:00Z,28.8667,-90.4833,12.93,11111222 
WAVCIS,ioos:station:WAVCIS:CSI06:1,2011-01-07T07:00:00Z,28.8667,-90.4833,12.64,11111222 
WAVCIS,ioos:station:WAVCIS:CSI06:1,2011-01-07T08:00:00Z,28.8667,-90.4833,12.65,11111222 
WAVCIS,ioos:station:WAVCIS:CSI06:1,2011-01-07T09:00:00Z,28.8667,-90.4833,12.97,11111222 
WAVCIS,ioos:station:WAVCIS:CSI06:1,2011-01-07T10:00:00Z,28.8667,-90.4833,13.05,11111222 
WAVCIS,ioos:station:WAVCIS:CSI06:1,2011-01-07T11:00:00Z,28.8667,-90.4833,13.14,11111222 
WAVCIS,ioos:station:WAVCIS:CSI06:1,2011-01-07T12:00:00Z,28.8667,-90.4833,13.03,11111222 
WAVCIS,ioos:station:WAVCIS:CSI06:1,2011-01-07T13:00:00Z,28.8667,-90.4833,13.07,11111222 
WAVCIS,ioos:station:WAVCIS:CSI06:1,2011-01-07T14:00:00Z,28.8667,-90.4833,13.22,11111222 
WAVCIS,ioos:station:WAVCIS:CSI06:1,2011-01-07T15:00:00Z,28.8667,-90.4833,13.25,11111222 
WAVCIS,ioos:station:WAVCIS:CSI06:1,2011-01-07T16:00:00Z,28.8667,-90.4833,13.91,11111222 
WAVCIS,ioos:station:WAVCIS:CSI06:1,2011-01-07T17:00:00Z,28.8667,-90.4833,14.15,11111222 
WAVCIS,ioos:station:WAVCIS:CSI06:1,2011-01-07T18:00:00Z,28.8667,-90.4833,14.44,11111222 
WAVCIS,ioos:station:WAVCIS:CSI06:1,2011-01-07T19:00:00Z,28.8667,-90.4833,14.82,11111222 
WAVCIS,ioos:station:WAVCIS:CSI06:1,2011-01-07T20:00:00Z,28.8667,-90.4833,15.07,11111222 
WAVCIS,ioos:station:WAVCIS:CSI06:1,2011-01-07T21:00:00Z,28.8667,-90.4833,15.2,11111222 
WAVCIS,ioos:station:WAVCIS:CSI06:1,2011-01-07T22:00:00Z,28.8667,-90.4833,15.18,11111222 
WAVCIS,ioos:station:WAVCIS:CSI06:1,2011-01-07T23:00:00Z,28.8667,-90.4833,15.07,11111222 
WAVCIS,ioos:station:WAVCIS:CSI06:1,2011-01-08T00:00:00Z,28.8667,-90.4833,14.74,11111222 
WAVCIS,ioos:station:WAVCIS:CSI06:1,2011-01-08T01:00:00Z,28.8667,-90.4833,14.68,11111222 
WAVCIS,ioos:station:WAVCIS:CSI06:1,2011-01-08T02:00:00Z,28.8667,-90.4833,14.84,11111222 
WAVCIS,ioos:station:WAVCIS:CSI06:1,2011-01-08T03:00:00Z,28.8667,-90.4833,15.09,11111222 
WAVCIS,ioos:station:WAVCIS:CSI06:1,2011-01-08T04:00:00Z,28.8667,-90.4833,15.21,11111222 
WAVCIS,ioos:station:WAVCIS:CSI06:1,2011-01-08T05:00:00Z,28.8667,-90.4833,15.37,11111222 
WAVCIS,ioos:station:WAVCIS:CSI06:1,2011-01-08T06:00:00Z,28.8667,-90.4833,15.33,11111222 
WAVCIS,ioos:station:WAVCIS:CSI06:1,2011-01-08T07:00:00Z,28.8667,-90.4833,15.14,11111222 
WAVCIS,ioos:station:WAVCIS:CSI06:1,2011-01-08T08:00:00Z,28.8667,-90.4833,15.47,11111222 
WAVCIS,ioos:station:WAVCIS:CSI06:1,2011-01-08T09:00:00Z,28.8667,-90.4833,15.59,11111222 
WAVCIS,ioos:station:WAVCIS:CSI06:1,2011-01-08T10:00:00Z,28.8667,-90.4833,15.36,11111222 
WAVCIS,ioos:station:WAVCIS:CSI06:1,2011-01-08T11:00:00Z,28.8667,-90.4833,13.93,11111222 
WAVCIS,ioos:station:WAVCIS:CSI06:1,2011-01-08T12:00:00Z,28.8667,-90.4833,12.89,11111222 
WAVCIS,ioos:station:WAVCIS:CSI06:1,2011-01-08T13:00:00Z,28.8667,-90.4833,12.24,11111222 
WAVCIS,ioos:station:WAVCIS:CSI06:1,2011-01-08T14:00:00Z,28.8667,-90.4833,12.05,11111222 
WAVCIS,ioos:station:WAVCIS:CSI06:1,2011-01-08T15:00:00Z,28.8667,-90.4833,12.03,11111222 
WAVCIS,ioos:station:WAVCIS:CSI06:1,2011-01-08T16:00:00Z,28.8667,-90.4833,11.93,11111222 
WAVCIS,ioos:station:WAVCIS:CSI06:1,2011-01-08T17:00:00Z,28.8667,-90.4833,13.24,11111222 
WAVCIS,ioos:station:WAVCIS:CSI06:1,2011-01-08T18:00:00Z,28.8667,-90.4833,13.07,11111222 
WAVCIS,ioos:station:WAVCIS:CSI06:1,2011-01-08T19:00:00Z,28.8667,-90.4833,12.89,11111222 
WAVCIS,ioos:station:WAVCIS:CSI06:1,2011-01-08T20:00:00Z,28.8667,-90.4833,13.25,11111222 
WAVCIS,ioos:station:WAVCIS:CSI06:1,2011-01-08T21:00:00Z,28.8667,-90.4833,13.99,11111222 
WAVCIS,ioos:station:WAVCIS:CSI06:1,2011-01-08T22:00:00Z,28.8667,-90.4833,13.35,11111222 
WAVCIS,ioos:station:WAVCIS:CSI06:1,2011-01-08T23:00:00Z,28.8667,-90.4833,12.61,11111222 
WAVCIS,ioos:station:WAVCIS:CSI06:1,2011-01-09T00:00:00Z,28.8667,-90.4833,12.41,11111222 
WAVCIS,ioos:station:WAVCIS:CSI06:1,2011-01-09T01:00:00Z,28.8667,-90.4833,12.57,11111222 
WAVCIS,ioos:station:WAVCIS:CSI06:1,2011-01-09T02:00:00Z,28.8667,-90.4833,12.64,11111222 
WAVCIS,ioos:station:WAVCIS:CSI06:1,2011-01-09T03:00:00Z,28.8667,-90.4833,12.91,11111222 
WAVCIS,ioos:station:WAVCIS:CSI06:1,2011-01-09T04:00:00Z,28.8667,-90.4833,13.02,11111222 
WAVCIS,ioos:station:WAVCIS:CSI06:1,2011-01-09T05:00:00Z,28.8667,-90.4833,12.71,11111222 
WAVCIS,ioos:station:WAVCIS:CSI06:1,2011-01-09T06:00:00Z,28.8667,-90.4833,12.94,11111222 
WAVCIS,ioos:station:WAVCIS:CSI06:1,2011-01-09T07:00:00Z,28.8667,-90.4833,12.68,11111222 
WAVCIS,ioos:station:WAVCIS:CSI06:1,2011-01-09T08:00:00Z,28.8667,-90.4833,12.39,11111222 
WAVCIS,ioos:station:WAVCIS:CSI06:1,2011-01-09T09:00:00Z,28.8667,-90.4833,12.11,11111222 
WAVCIS,ioos:station:WAVCIS:CSI06:1,2011-01-09T10:00:00Z,28.8667,-90.4833,12.27,11111222 
WAVCIS,ioos:station:WAVCIS:CSI06:1,2011-01-09T11:00:00Z,28.8667,-90.4833,12.38,11111222 
WAVCIS,ioos:station:WAVCIS:CSI06:1,2011-01-09T12:00:00Z,28.8667,-90.4833,12.73,11111222 
WAVCIS,ioos:station:WAVCIS:CSI06:1,2011-01-09T13:00:00Z,28.8667,-90.4833,13.13,11111222 
WAVCIS,ioos:station:WAVCIS:CSI06:1,2011-01-09T14:00:00Z,28.8667,-90.4833,13.81,11111222 
WAVCIS,ioos:station:WAVCIS:CSI06:1,2011-01-09T15:00:00Z,28.8667,-90.4833,14.37,11111222 
WAVCIS,ioos:station:WAVCIS:CSI06:1,2011-01-09T16:00:00Z,28.8667,-90.4833,15.22,11111222 
WAVCIS,ioos:station:WAVCIS:CSI06:1,2011-01-09T17:00:00Z,28.8667,-90.4833,15.62,11111222 
WAVCIS,ioos:station:WAVCIS:CSI06:1,2011-01-09T18:00:00Z,28.8667,-90.4833,15.76,11111222 
WAVCIS,ioos:station:WAVCIS:CSI06:1,2011-01-09T19:00:00Z,28.8667,-90.4833,15.79,11111222 
WAVCIS,ioos:station:WAVCIS:CSI06:1,2011-01-09T20:00:00Z,28.8667,-90.4833,15.65,11111222 
WAVCIS,ioos:station:WAVCIS:CSI06:1,2011-01-09T21:00:00Z,28.8667,-90.4833,15.5,11111222 
WAVCIS,ioos:station:WAVCIS:CSI06:1,2011-01-09T22:00:00Z,28.8667,-90.4833,15.76,11111222 
WAVCIS,ioos:station:WAVCIS:CSI06:1,2011-01-09T23:00:00Z,28.8667,-90.4833,16.82,11111222 
WAVCIS,ioos:station:WAVCIS:CSI06:1,2011-01-10T00:00:00Z,28.8667,-90.4833,16.67,11111222 
WAVCIS,ioos:station:WAVCIS:CSI06:1,2011-01-10T01:00:00Z,28.8667,-90.4833,16.04,11111222 
WAVCIS,ioos:station:WAVCIS:CSI06:1,2011-01-10T02:00:00Z,28.8667,-90.4833,14.52,11111222 
WAVCIS,ioos:station:WAVCIS:CSI06:1,2011-01-10T03:00:00Z,28.8667,-90.4833,13.4,11111222 
WAVCIS,ioos:station:WAVCIS:CSI06:1,2011-01-10T04:00:00Z,28.8667,-90.4833,11.19,11111222 
WAVCIS,ioos:station:WAVCIS:CSI06:1,2011-01-10T05:00:00Z,28.8667,-90.4833,10.75,11111222 
WAVCIS,ioos:station:WAVCIS:CSI06:1,2011-01-10T06:00:00Z,28.8667,-90.4833,9.61,11111222 
WAVCIS,ioos:station:WAVCIS:CSI06:1,2011-01-10T07:00:00Z,28.8667,-90.4833,9.2,11111222 
WAVCIS,ioos:station:WAVCIS:CSI06:1,2011-01-10T08:00:00Z,28.8667,-90.4833,8.55,11111222 
WAVCIS,ioos:station:WAVCIS:CSI06:1,2011-01-10T09:00:00Z,28.8667,-90.4833,7.26,11111222 
WAVCIS,ioos:station:WAVCIS:CSI06:1,2011-01-10T10:00:00Z,28.8667,-90.4833,6.85,11111222 
WAVCIS,ioos:station:WAVCIS:CSI06:1,2011-01-10T11:00:00Z,28.8667,-90.4833,7.09,11111222 
WAVCIS,ioos:station:WAVCIS:CSI06:1,2011-01-10T12:00:00Z,28.8667,-90.4833,6.78,11111222 
WAVCIS,ioos:station:WAVCIS:CSI06:1,2011-01-10T13:00:00Z,28.8667,-90.4833,6.15,11111222 
WAVCIS,ioos:station:WAVCIS:CSI06:1,2011-01-10T14:00:00Z,28.8667,-90.4833,6.42,11111222 
WAVCIS,ioos:station:WAVCIS:CSI06:1,2011-01-10T15:00:00Z,28.8667,-90.4833,6.62,11111222 
WAVCIS,ioos:station:WAVCIS:CSI06:1,2011-01-10T16:00:00Z,28.8667,-90.4833,6.62,11111222 
WAVCIS,ioos:station:WAVCIS:CSI06:1,2011-01-10T17:00:00Z,28.8667,-90.4833,6.55,11111222 
WAVCIS,ioos:station:WAVCIS:CSI06:1,2011-01-10T18:00:00Z,28.8667,-90.4833,6.67,11111222 
WAVCIS,ioos:station:WAVCIS:CSI06:1,2011-01-10T19:00:00Z,28.8667,-90.4833,7.07,11111222 
WAVCIS,ioos:station:WAVCIS:CSI06:1,2011-01-10T20:00:00Z,28.8667,-90.4833,6.82,11111222 
WAVCIS,ioos:station:WAVCIS:CSI06:1,2011-01-10T21:00:00Z,28.8667,-90.4833,7.02,11111222 
WAVCIS,ioos:station:WAVCIS:CSI06:1,2011-01-10T22:00:00Z,28.8667,-90.4833,7.28,11111222 
WAVCIS,ioos:station:WAVCIS:CSI06:1,2011-01-10T23:00:00Z,28.8667,-90.4833,7.6,11111222 
WAVCIS,ioos:station:WAVCIS:CSI06:1,2011-01-11T00:00:00Z,28.8667,-90.4833,8.46,11111222 
WAVCIS,ioos:station:WAVCIS:CSI06:1,2011-01-11T01:00:00Z,28.8667,-90.4833,8.69,11111222 
WAVCIS,ioos:station:WAVCIS:CSI06:1,2011-01-11T02:00:00Z,28.8667,-90.4833,8.59,11111222 
WAVCIS,ioos:station:WAVCIS:CSI06:1,2011-01-11T03:00:00Z,28.8667,-90.4833,8.51,11111222 
WAVCIS,ioos:station:WAVCIS:CSI06:1,2011-01-11T04:00:00Z,28.8667,-90.4833,7.94,11111222 
WAVCIS,ioos:station:WAVCIS:CSI06:1,2011-01-11T05:00:00Z,28.8667,-90.4833,7.19,11111222 
WAVCIS,ioos:station:WAVCIS:CSI06:1,2011-01-11T06:00:00Z,28.8667,-90.4833,6.61,11111222 
WAVCIS,ioos:station:WAVCIS:CSI06:1,2011-01-11T07:00:00Z,28.8667,-90.4833,6.64,11111222 
WAVCIS,ioos:station:WAVCIS:CSI06:1,2011-01-11T08:00:00Z,28.8667,-90.4833,7.04,11111222 
WAVCIS,ioos:station:WAVCIS:CSI06:1,2011-01-11T09:00:00Z,28.8667,-90.4833,6.97,11111222 
WAVCIS,ioos:station:WAVCIS:CSI06:1,2011-01-11T10:00:00Z,28.8667,-90.4833,6.78,11111222 
WAVCIS,ioos:station:WAVCIS:CSI06:1,2011-01-11T11:00:00Z,28.8667,-90.4833,5.97,11111222 
WAVCIS,ioos:station:WAVCIS:CSI06:1,2011-01-11T12:00:00Z,28.8667,-90.4833,5.62,11111222 
WAVCIS,ioos:station:WAVCIS:CSI06:1,2011-01-11T13:00:00Z,28.8667,-90.4833,5.278,11111222 
WAVCIS,ioos:station:WAVCIS:CSI06:1,2011-01-11T14:00:00Z,28.8667,-90.4833,4.932,11111222 
WAVCIS,ioos:station:WAVCIS:CSI06:1,2011-01-11T15:00:00Z,28.8667,-90.4833,4.884,11111222 
WAVCIS,ioos:station:WAVCIS:CSI06:1,2011-01-11T16:00:00Z,28.8667,-90.4833,4.743,11111222 
WAVCIS,ioos:station:WAVCIS:CSI06:1,2011-01-11T17:00:00Z,28.8667,-90.4833,4.162,11111222 
WAVCIS,ioos:station:WAVCIS:CSI06:1,2011-01-11T18:00:00Z,28.8667,-90.4833,4.001,11111222 
WAVCIS,ioos:station:WAVCIS:CSI06:1,2011-01-11T19:00:00Z,28.8667,-90.4833,4.429,11111222 
WAVCIS,ioos:station:WAVCIS:CSI06:1,2011-01-11T20:00:00Z,28.8667,-90.4833,5.305,11111222 
WAVCIS,ioos:station:WAVCIS:CSI06:1,2011-01-11T21:00:00Z,28.8667,-90.4833,5.95,11111222 
WAVCIS,ioos:station:WAVCIS:CSI06:1,2011-01-11T22:00:00Z,28.8667,-90.4833,6.68,11111222 
WAVCIS,ioos:station:WAVCIS:CSI06:1,2011-01-11T23:00:00Z,28.8667,-90.4833,7.0,11111222 
WAVCIS,ioos:station:WAVCIS:CSI06:1,2011-01-12T00:00:00Z,28.8667,-90.4833,7.63,11111222 
WAVCIS,ioos:station:WAVCIS:CSI06:1,2011-01-12T01:00:00Z,28.8667,-90.4833,7.4,11111222 
WAVCIS,ioos:station:WAVCIS:CSI06:1,2011-01-12T02:00:00Z,28.8667,-90.4833,7.2,11111222 
WAVCIS,ioos:station:WAVCIS:CSI06:1,2011-01-12T03:00:00Z,28.8667,-90.4833,6.59,11111222 
WAVCIS,ioos:station:WAVCIS:CSI06:1,2011-01-12T04:00:00Z,28.8667,-90.4833,6.05,11111222 